This is the latest recevied weather packets stored in our database for station/object SP8EBC-11. If no packets are shown the sender has not sent any weather packets the latest 1 day(s).
| Time | Temp. | Humidity | Pressure | Rain* | Wind** | Luminosity | Snow |
|---|---|---|---|---|---|---|---|
| 1778012305 | 13.89° C | 70% | 991.6 hPa | - | 4.02 m/s, 26° | - | - |
| 1778012184 | 13.89° C | 70% | 991.6 hPa | - | 3.58 m/s, 32° | - | - |
| 1778012065 | 13.89° C | 70% | 991.6 hPa | - | 3.58 m/s, 34° | - | - |
| 1778011945 | 14.44° C | 70% | 991.6 hPa | - | 3.58 m/s, 33° | - | - |
| 1778011825 | 14.44° C | 70% | 991.6 hPa | - | 3.58 m/s, 34° | - | - |
| 1778011705 | 14.44° C | 70% | 991.5 hPa | - | 4.02 m/s, 32° | - | - |
| 1778011584 | 14.44° C | 70% | 991.5 hPa | - | 4.47 m/s, 26° | - | - |
| 1778011465 | 14.44° C | 70% | 991.5 hPa | - | 4.47 m/s, 30° | - | - |
| 1778011344 | 14.44° C | 70% | 991.5 hPa | - | 3.58 m/s, 24° | - | - |
| 1778011225 | 14.44° C | 70% | 991.5 hPa | - | 3.58 m/s, 23° | - | - |
| 1778011106 | 14.44° C | 70% | 991.4 hPa | - | 3.58 m/s, 26° | - | - |
| 1778010984 | 14.44° C | 70% | 991.4 hPa | - | 4.02 m/s, 23° | - | - |
| 1778010864 | 14.44° C | 70% | 991.4 hPa | - | 4.47 m/s, 24° | - | - |
| 1778010744 | 14.44° C | 70% | 991.4 hPa | - | 3.58 m/s, 20° | - | - |
| 1778010615 | 15° C | 70% | 991.4 hPa | - | 3.13 m/s, 17° | - | - |
| 1778010495 | 15° C | 69% | 991.4 hPa | - | 3.13 m/s, 23° | - | - |
| 1778010375 | 15° C | 69% | 991.4 hPa | - | 3.58 m/s, 23° | - | - |
| 1778010255 | 15° C | 70% | 991.4 hPa | - | 3.58 m/s, 20° | - | - |
| 1778010136 | 15° C | 69% | 991.4 hPa | - | 3.58 m/s, 22° | - | - |
| 1778010015 | 15° C | 69% | 991.4 hPa | - | 3.58 m/s, 23° | - | - |
| 1778009895 | 15° C | 69% | 991.4 hPa | - | 4.02 m/s, 32° | - | - |
| 1778009776 | 15° C | 69% | 991.4 hPa | - | 3.58 m/s, 32° | - | - |
| 1778009655 | 15° C | 69% | 991.4 hPa | - | 4.02 m/s, 32° | - | - |
| 1778009535 | 15° C | 69% | 991.4 hPa | - | 4.02 m/s, 33° | - | - |
| 1778009415 | 15° C | 69% | 991.4 hPa | - | 3.58 m/s, 33° | - | - |
* Rain since midnight (hover to see other rain measurements)
** Current wind speed in m/s (hover to see current wind gust speed)